Showing default

OPS 6577 (VELA 5), 1458

Orbit data source: Space-Track

OPS 6577 (VELA 5), 1458 is a payload satellite owned by USAF SSD (US) in HEO that was launched on Tue, 20 Jul 1965 UTC via an ATLAS AGENA D launch vehicle from the Air Force Eastern Test Range (AFETR). Payload-class satellites include a variety of spacecraft equipped with specific instruments for various scientific and technological missions. These include communications satellites like Starlink; space stations such as the ISS; scientific satellites like the Hubble; Earth observation satellites from companies like Planet Labs, Umbra, and HawkEye 360; GPS; miniature CubeSats for education and research; and military/defense satellites.

Loading next visibility...
Identifier
1458, 1965-058A
Orbit
HEO
Country
Flag of USUS
Related business
Manufacturer
TRW
Mission
Spacecraft
Bus & Motor
VELA, BE-3A
Mass
~234 kg wet, 132 kg dry
Launch date (UTC)
1965-07-20 (61 years ago)
Launch vehicle
ATLAS AGENA D
Launch site
Air Force Eastern Test Range (AFETR)
Object type
Payload
Rocket body
Debris
Shape & HBR
POLY, 0.7 m
Radar Cross Section
Medium (>0.1 m² and <1 m²)

Expand to show TLE details & history
Last TLE update: in 4 days

TLE from in 4 days
0 OPS 6577 (VELA 5)
1 01458U 65058A   26212.32117881 -.00001318  00000-0  00000-0 0  9990
2 01458  29.2874  14.6452 5104491 320.5858 358.0286  0.21414066 12143
Epoch: 2026-07-31T07:42Z
TLE epoch observation values (Epoch: 2026-07-31T07:42:29.849Z)
Latitude
-19.37049°
Longitude
-88.80554°
Altitude
50,532.359 km
Speed
3.261 km/s
True Right ascension
22h 23m 04s
True Declination
-19° 21' 25"
Sunlit
Object was in daylight at epoch
Visualization orbit readout
Latitude
Unknown
Longitude
Unknown
Altitude
Unknown
Speed
Unknown
Apparent Right ascension
Unknown
Apparent Declination
Unknown
Sunlit
N/A
Visualization observer readout
Local Sidereal Time
05:05:47
Azimuth
Unknown
Elevation
Unknown
Doppler factor
Unknown
Orbital elements
Apogee altitude
171,877.592 km
Perigee altitude
51,396.238 km
Semi-major axis
118,015.052 km
Eccentricity
0.51045
Inclination
29.2874°
RAAN
14.6452°
Arg. of periapsis
320.5858°
True anomaly
352.93866°
Mean anomaly
358.0286°
Eccentric anomaly
355.97649°
Mean motion
0.05353 °/min
Orbital period
6,724.58 mins
BSTAR
0
Loading maneuver chart data...
Computing Atmospheric mass density...
Loading historical data...
Loading historical data...
Loading historical data...
Loading historical data...
Loading historical data...
Loading historical data...
Loading historical data...
Other satellites on launch #58 in the year 1965 (1965-07-20 UTC)

Documentation

Showing up to 5 results
|